map of TKF home
TKF - Airport
Location
City:  Truckee, California, United States
Name:Truckee-Tahoe Airport
ICAO:KTRK
IATA:TKF
FAA LID:TRK

Details
Type:Airport (Airfield)
Use:Public/Civil
Latitude:3919'12"N (39.320042)
Longitude:12008'22"W (-120.139562)
Datum:WGS 1984
Elevation:5901 ft (1799 m)
Variation:13.47E (WMM2015 magnetic declination)
-0.10 annual change
Runways:2
Longest:7000 × 100 ft (2134 × 30.5 m), paved

Time
Time Zone:UTC-8 (DST-7)
Local Time:

Weather
METAR:KTRK 220835Z AUTO 00000KT 10SM CLR 10/09 A3029 RMK AO2
TAF:KTRK 220527Z 2206/2306 VRB03KT P6SM FEW090 SCT150
FM221000 VRB03KT P6SM VCSH SCT070
FM222100 21008KT P6SM VCTS SCT080CB

Related Locations
Nearby:
Farthest:FTU: 11197 mi / 18020 km
Tolagnaro [Maurillac Airport (Fort Dauphin Airport)], MG

Find:

   beyond  
but within

Other Information
Maps:
NOTAMs:
Links:
Sources:

  
flag of United States
flag of California
  

Airport Diagram

Airport diagram for TKF

Airport diagram PDF

Sectional Chart

Flight Planning
at skyvector.com

Satellite Image

Google Maps Satellite view

 

Copyright © 2004-2017 Karl L. Swartz. All rights reserved.
The Great Circle Mapper name and logo are trademarks of the Great Circle Mapper.
All other trademarks mentioned herein belong to their respective owners.
Please see credits for attibutions and further copyright information.

  Follow gcmap on Facebook Follow gcmap on Twitter Follow gcmap on Google+ GCmap on LinkedIn

hCard Microformat

Geo Microformat